Regional Weather Roundup
Issued by NWS

Home | Current Version | Previous Version | Graphics & Text | Print | Product List | Glossary On
Versions: 1 2 3 4 5 6 7 8 9 10 11 12 13 14 15 16 17 18 19 20 21 22 23 24 25 26 27 28 29 30 31 32 33 34 35 36 37 38 39 40 41 42 43 44 45 46 47 48 49 50
000
ASUS45 KCYS 290910
RWRWY

WYOMING REGIONAL WEATHER ROUNDUP
NATIONAL WEATHER SERVICE CHEYENNE WY
300 AM MDT MON JUN 29 2015

NOTE:  "FAIR" INDICATES FEW OR NO CLOUDS BELOW 12,000 FEET
WITH NO SIGNIFICANT WEATHER AND/OR OBSTRUCTIONS TO VISIBILITY.

WYZ001-291000-
YELLOWSTONE NATIONAL PARK

CITY           SKY/WX    TMP DP  RH WIND       PRES   REMARKS
LK YELLOWSTONE   N/A     49  43  80 NW3       30.44F
W YELLOWSTONE  NOT AVBL

$$
WYZ002>013-054>058-071-098>099-291000-
NORTHERN WYOMING

CITY           SKY/WX    TMP DP  RH WIND       PRES   REMARKS
JACKSON        FAIR      61  48  63 CALM      30.32R
CODY           FAIR      70  48  46 SW6       30.21S
GREYBULL       FAIR      68  51  54 SW6       30.12R
WORLAND        FAIR      66  50  56 S10       30.13R
SHERIDAN       FAIR      62  51  67 CALM      30.10F
BUFFALO        FAIR      69  48  47 W13       30.17F
GILLETTE       FAIR      66  55  67 W5        30.09F
HULETT         FAIR      70  55  60 SW7       30.10F
NEWCASTLE      FAIR      68  54  60 SE8       30.12F

$$
WYZ014>020-022>026-101>103-291000-
CENTRAL WYOMING

CITY           SKY/WX    TMP DP  RH WIND       PRES   REMARKS
BIG PINEY      FAIR      56  43  61 N10       30.37S
PINEDALE       FAIR      54  46  76 NW6       30.37F
DUBOIS         FAIR      52  43  71 NW9       30.38F
LANDER         FAIR      62  46  55 S8        30.24F
RIVERTON       FAIR      64  53  67 W12       30.24F
CASPER         FAIR      54  50  86 W5        30.21F
DOUGLAS        FAIR      59  53  80 SE3       30.18F

$$
WYZ021-027>030-104>119-291000-
SOUTHERN WYOMING

CITY           SKY/WX    TMP DP  RH WIND       PRES   REMARKS
EVANSTON       FAIR      68  40  35 E13       30.31S
KEMMERER       FAIR      61  43  51 N13       30.36F
FORT BRIDGER   SUNNY     63  41  45 E5        30.36R
ROCK SPRINGS   FAIR      64  41  42 E6        30.33R
DIXON          FAIR      62  44  50 NE7       30.31S
RAWLINS        FAIR      55  44  66 CALM      30.32S
SARATOGA       FAIR      54  46  76 CALM      30.34S
LARAMIE        FAIR      52  47  83 NW6       30.33F
CHEYENNE       FAIR      62  53  72 NE6       30.25S
TORRINGTON     FAIR      66  58  75 NW9       30.14R
PINE BLUFFS    TSTM      63  59  88 CALM      30.19F

$$


USA.gov is the U.S. government's official web portal to all federal, state and local government web resources and services.